Weather in Negage

Angola     7°46′04″S   15°15′55″E
temp.,
°C
wind,
m/s
gust,
m/s
humid.,
%
clouds,
%
prec.,
mm/h
press.,
hPa
HPBL,
m
20 april, tue
tue2001:00+18nw1196100 1.1 101311
04:00+17ene2296100 0.3 101334
07:00+18ene1296100 2.4 101585
10:00+20nne1190100 3.0 101519
13:00+21nw1187100 3.4 1013164
16:00+22wsw1183100 1.3 1011336
19:00+19sw0196100 3.2 101411
22:00+19e2497100 0.9 1015134
21 april, wed
wed2101:00+18e269599 1.3 1013135
04:00+18e31190100 0.0 1012301
07:00+18e3109292 0.0 1014297
10:00+20e3118999 0.0 1014398
13:00+27e465912 0.3 10101528
16:00+24e357514 0.3 1010585
19:00+19e399035 0.7 1012257
22:00+18e389495 0.6 1013159
22 april, thu
thu2201:00+18e2496100 1.6 1013100
04:00+17ene239889 5.1 101380
07:00+18ene239686 7.1 1015101
10:00+23ene3682100 3.4 1014397
13:00+23ne2382100 9.3 1012309
16:00+22ese1187100 3.9 101117
19:00+19ene1191100 4.3 101324
22:00+19e2594100 0.5 1015132
23 april, fri
fri2301:00+17ese2394100 1.1 101373
04:00+18e2394100 0.1 101277
07:00+19e2894100 0.1 1014219
10:00+23e2483100 2.2 1014389
13:00+24ne237498 6.1 1012695
16:00+23wnw1180100 3.2 1011327
19:00+19wsw1196100 5.3 101328
22:00+18se2496100 0.0 101384
24 april, sat
sat2401:00+18se119486 0.0 101313
04:00+17ese249699 0.8 1012101
07:00+18e31194100 1.1 1013344
10:00+21e41186100 0.1 1014557
13:00+22e4778100 1.6 1012529
16:00+23ene247682 0.3 1011288
19:00+18ene2593100 6.8 101394
22:00+18e2695100 0.1 1015153